DW5918 Weather Reports


Display with metric or nautical units.
time (UTC)temp
F
wind
direction
speed
MPH
gust
MPH
rain 1hr
in
rain 24hr
in
rain mn
in
humidity
%
barometer
mb
20260904030006 68 200 0.0 0.0 0.00 0.14 0.14 1 1012.4
20260904024600 68 200 0.0 0.0 0.00 0.14 0.14 1 1012.8
20260904023020 68 200 0.0 0.0 0.00 0.14 0.14 1 1012.7
20260904021613 68 200 0.0 0.0 0.00 0.14 0.14 1 1012.8
20260904020030 68 200 0.0 0.0 0.00 0.14 0.14 1 1012.9
20260904013044 68 200 0.0 0.0 0.00 0.14 0.14 1 1013.0
20260904011632 69 200 0.0 0.0 0.00 0.14 0.14 1 1012.9
20260904010052 69 200 0.0 0.0 0.00 0.14 0.14 1 1012.7
20260904004506 69 200 0.0 0.0 0.00 0.14 0.14 1 1012.7
20260904003057 69 200 0.0 0.0 0.00 0.14 0.14 1 1012.7
20260904001516 70 200 0.0 1.0 0.00 0.14 0.14 1 1012.6
20260904000124 70 200 0.0 1.0 0.00 0.14 0.14 8 1012.3
20260903234520 71 200 0.0 0.0 0.00 0.14 0.14 18 1011.8
20260903233114 72 200 0.0 0.0 0.00 0.14 0.14 19 1011.9
20260903231536 72 200 0.0 0.0 0.00 0.14 0.14 23 1012.0
20260903230124 73 200 0.0 1.0 0.00 0.14 0.14 36 1011.9
20260903224559 74 200 0.0 0.0 0.00 0.14 0.14 46 1011.7
20260903221601 75 200 0.0 0.0 0.00 0.14 0.14 60 1011.7
20260903220022 76 200 0.0 0.0 0.00 0.14 0.14 63 1011.9
20260903214612 77 265 0.0 1.0 0.00 0.14 0.14 66 1011.9
20260903213033 78 241 0.0 2.0 0.00 0.14 0.14 67 1011.8
20260903211614 78 250 0.0 4.0 0.00 0.14 0.14 67 1012.0
20260903210041 78 151 0.0 2.0 0.00 0.14 0.14 67 1012.0
20260903204622 79 275 0.0 3.0 0.00 0.14 0.14 67 1011.8
20260903203056 78 196 0.0 1.0 0.00 0.14 0.14 67 1011.9
20260903201632 80 261 0.0 1.0 0.00 0.14 0.14 67 1011.9
20260903200052 79 202 0.0 5.0 0.00 0.14 0.14 67 1011.9
20260903194631 80 309 0.0 3.0 0.00 0.14 0.14 67 1011.9
20260903193052 79 174 0.0 2.0 0.00 0.14 0.14 67 1012.2
20260903191504 78 228 0.0 2.0 0.00 0.14 0.14 66 1012.4
20260903190054 78 256 0.0 3.0 0.00 0.14 0.14 67 1012.5
20260903184511 78 237 0.0 2.0 0.00 0.14 0.14 67 1012.6
20260903183106 79 237 0.0 0.0 0.00 0.14 0.14 66 1012.7
20260903181529 78 237 0.0 1.0 0.00 0.14 0.14 64 1012.7
20260903180117 78 238 0.0 3.0 0.00 0.14 0.14 65 1012.8
20260903174604 77 254 0.0 1.0 0.00 0.14 0.14 62 1012.9
20260903173021 76 254 0.0 3.0 0.00 0.14 0.14 62 1013.1
20260903171622 77 229 0.0 2.0 0.00 0.14 0.14 65 1013.4
20260903170036 78 211 0.0 4.0 0.00 0.14 0.14 64 1013.1
20260903164634 77 242 1.0 5.0 0.00 0.14 0.14 63 1013.1
20260903163044 77 280 0.0 1.0 0.00 0.14 0.14 63 1013.4
20260903161507 76 282 0.0 3.0 0.00 0.14 0.14 61 1013.7
20260903154519 76 210 0.0 3.0 0.00 0.14 0.14 54 1013.8
20260903153112 75 209 0.0 3.0 0.00 0.14 0.14 57 1014.0
20260903151519 75 158 1.0 5.0 0.00 0.14 0.14 50 1014.1
20260903150113 73 258 0.0 1.0 0.00 0.14 0.14 21 1014.1
20260903144528 71 258 0.0 1.0 0.00 0.14 0.14 1 1014.0
20260903143116 71 260 0.0 1.0 0.00 0.14 0.14 1 1014.0
20260903141512 69 260 0.0 4.0 0.00 0.14 0.14 1 1014.0
20260903140008 69 271 0.0 1.0 0.00 0.14 0.14 1 1014.1
20260903134504 68 270 0.0 1.0 0.00 0.14 0.14 1 1014.1
20260903133100 67 271 0.0 0.0 0.00 0.14 0.14 1 1014.2
20260903131555 66 270 0.0 2.0 0.00 0.14 0.14 1 1014.4
20260903130050 66 360 0.0 0.0 0.00 0.14 0.14 1 1014.6
20260903124547 65 270 0.0 0.0 0.00 0.14 0.14 1 1014.5
20260903123043 65 270 0.0 0.0 0.00 0.14 0.14 1 1015.0
20260903121538 64 270 0.0 0.0 0.01 0.14 0.14 1 1014.9
20260903120034 64 360 0.0 0.0 0.01 0.14 0.14 1 1015.0
20260903114530 64 360 0.0 0.0 0.01 0.14 0.14 1 1015.3
20260903113029 64 360 0.0 0.0 0.01 0.14 0.14 1 1015.3
20260903111534 63 198 0.0 0.0 0.00 0.13 0.13 1 1015.3
20260903110017 63 198 0.0 0.0 0.00 0.13 0.13 1 1015.3
20260903104613 63 198 0.0 0.0 0.00 0.13 0.13 1 1015.5
20260903103009 62 163 0.0 0.0 0.00 0.13 0.13 1 1015.1
20260903101504 62 163 0.0 0.0 0.00 0.13 0.13 1 1015.2
20260903100103 62 163 0.0 0.0 0.00 0.13 0.13 1 1015.0
20260903094559 62 163 0.0 0.0 0.00 0.13 0.13 1 1014.8
20260903093106 62 163 0.0 0.0 0.00 0.13 0.13 1 1014.9
20260903091547 62 163 0.0 0.0 0.00 0.13 0.13 1 1014.9
20260903090043 62 163 0.0 0.0 0.00 0.13 0.13 1 1015.1
20260903084538 61 163 0.0 0.0 0.00 0.13 0.13 1 1015.3
20260903083038 61 163 0.0 0.0 0.00 0.13 0.13 1 1015.5
20260903081534 61 163 0.0 1.0 0.01 0.13 0.13 1 1015.6
20260903080026 61 292 0.0 0.0 0.02 0.13 0.13 1 1015.2
20260903074521 61 292 0.0 1.0 0.04 0.13 0.13 1 1015.6
20260903073019 61 250 0.0 0.0 0.06 0.13 0.13 1 1015.6
20260903071514 61 250 0.0 1.0 0.06 0.12 0.12 1 1015.8
20260903070009 60 250 0.0 2.0 0.06 0.10 0.10 1 1015.6
20260903064505 60 251 0.0 1.0 0.06 0.09 0.09 1 1015.7
20260903063001 60 250 0.0 1.0 0.05 0.07 0.07 1 1015.7
20260903061559 60 250 0.0 1.0 0.05 0.06 0.06 1 1015.9
20260903060057 60 250 0.0 1.0 0.03 0.04 0.04 1 1016.2
20260903054548 60 250 0.0 1.0 0.03 0.03 0.03 1 1016.8
20260903053045 60 250 0.0 0.0 0.02 0.02 0.02 1 1017.0
20260903051544 60 250 0.0 1.0 0.01 0.01 0.01 1 1017.7
20260903050043 60 250 0.0 3.0 0.01 0.01 0.01 1 1018.0
20260903044531 60 250 0.0 0.0 0.00 0.00 0.00 13 1018.0
20260903043128 61 250 0.0 0.0 0.00 0.00 0.00 25 1018.1
20260903041527 61 250 0.0 1.0 0.00 0.00 0.00 30 1018.1
20260903040024 61 254 0.0 0.0 0.00 0.00 0.00 33 1018.1
20260903034527 61 254 0.0 0.0 0.00 0.00 0.00 34 1018.3
20260903033015 61 254 0.0 2.0 0.00 0.00 0.00 34 1018.1
20260903031511 61 213 0.0 0.0 0.00 0.00 0.00 35 1017.7